Retour au catalogue

TIANYAN-26

ActifMilitaireSSO
NORAD 65263·PAYLOAD·🇨🇳 China
Ce nom de satellite n'a pas encore été confirmé par des sources officielles.

Lancé Aug 19, 2025 depuis Jiuquan Satellite Launch Center

Loading…

Prochains Passages (prochaines 24 heures)

TLE

FraisSource: Space-Track

Époque: Sep 14, 2026, 22:46 UTC

1 65263U 25180E   26257.94916652  .00002719  00000-0  14363-3 0  9991
2 65263  97.4785  23.7136 0001619  88.6536 271.4882 15.16352126 59322

Suivez TIANYAN-26 en temps réel avec AllMySat

Download on the App Store